Location: Bartshausen
(51.8454°N, 9.8167°E)
Time: 09:08:14
(UTC+00:00)

Cosmos 407 Rocket - Pass Details

Date: 08 November 2025
Orbit: 740 x 780 km, 74.0° (Epoch: 11 December)

Event Time Altitude Azimuth Distance (km) Brightness Sun altitude
Exits shadow 04:54:48 10° 325° (NW) 2,238 5.5 -14.5°
Maximum altitude 04:59:37 47° 254° (WSW) 982 3.7 -13.8°
Drops below altitude 10° 05:04:28 10° 181° (S) 2,247 6.0 -13.0°
Sets 05:06:52 0° 176° (S) 3,167 6.9 -12.7°
